Regional Weather Roundup
Issued by NWS

Home | Current Version | Previous Version | Text Only | Print | Product List | Glossary Off
Versions: 1 2 3 4 5 6 7 8 9 10 11 12 13 14 15 16 17 18 19 20 21 22 23 24 25 26 27 28 29 30 31 32 33 34 35 36 37 38 39 40 41 42 43 44 45 46 47 48 49 50

043
ASUS43 KLOT 240409
RWRIL

ILLINOIS REGIONAL WEATHER ROUNDUP
NATIONAL WEATHER SERVICE CHICAGO/ROMEOVILLE IL
1100 PM CDT MON OCT 23 2017

NOTE: "FAIR" INDICATES FEW OR NO CLOUDS BELOW 12,000 FEET WITH NO
SIGNIFICANT WEATHER AND/OR OBSTRUCTIONS TO VISIBILITY.

* THESE STATIONS ARE NOT UNDER NWS QUALITY CONTROL. THEY ALSO MAY NOT
  REPORT WEATHER SUCH AS PRECIPITATION OR FOG.

ILZ001-002-007-009-015-016-024-240500-
NORTHWEST ILLINOIS

CITY           SKY/WX    TMP DP  RH WIND       PRES   REMARKS
MOLINE         CLOUDY    51  41  68 W15G25    29.75F
STERLING*      CLOUDY    50  41  71 W16G22      N/A
SAVANNA*       CLOUDY    49  42  75 W8G20     29.70F
$$

ILZ003-004-008-010-011-017-018-240500-
NORTH CENTRAL ILLINOIS

CITY           SKY/WX    TMP DP  RH WIND       PRES   REMARKS
ROCKFORD       LGT RAIN  49  45  86 W15       29.67F
FREEPORT*      CLOUDY    48  41  75 W10G18    29.69F
ROCHELLE*      CLOUDY    49  45  84 W14       29.67F
DE KALB*       DRIZZLE   49  47  96 W10       29.65F
PERU*          CLOUDY    50  43  76 W10       29.69F
$$

ILZ005-006-012>014-019>023-240500-
NORTHEAST ILLINOIS

CITY           SKY/WX    TMP DP  RH WIND       PRES   REMARKS
CHICAGO-OHARE  LGT RAIN  53  45  74 W16G23    29.60F
CHICAGO-MIDWAY LGT RAIN  53  47  79 W16G23    29.61F
AURORA         RAIN      50  48  93 W12       29.66F FOG
LANSING*       CLOUDY    51  49  91 W22G28    29.62F
JOLIET*        LGT RAIN  51  50  94 W9        29.66F
WAUKEGAN       CLOUDY    52  47  83 VRB5      29.56F
DUPAGE AIRPORT LGT RAIN  50  48  93 W17G25    29.63F
KANKAKEE*      LGT RAIN  51  49  95 W13       29.67F
WHEELING       CLOUDY    54  47  77 W14       29.60F
MORRIS*        LGT RAIN  50  48  93 W9        29.66F
ROMEOVILLE*    RAIN      49  47  93 W15       29.64F
NORTHERLY ISL    N/A     53  45  74 W10         N/A
$$

LMZ740>746-240500-
SOUTHERN LAKE MICHIGAN

STATION/POSITION SKY/WX   TEMP    WIND        PRES    VSBY  WAVE
                          AIR SEA DIR/SP/G                  HT/PER
                          (F)     (DEG/KT/KT) (MB)    (MI)  (FT/S)
SOUTHERN BUOY              54 60  310/ 12/ 16 1001.5          3/ 5
WILMETTE HARBOR            54 57  270/ 14/ 19   N/A           2/ 5
HARRISON CRIB              55     270/ 20/ 22   N/A
BURNHAM HARBOR             54     240/  7/ 10   N/A
CALUMET HARBOR             52     230/  6/ 10 1002.0F
BURNS HARBOR               53     230/ 12/ 15 1003.4F
MICHIGAN CITY              52     210/ 20/ 22   N/A
MICHIGAN CITY 6N           54 57  240/ 16/ 21   N/A           4/ 6
ST. JOSEPH                 55 58  270/ 14/ 19 1001.9          4/ 6
$$

ILZ025>027-034>036-040-047-049-050-058-095>099-240500-
WEST-CENTRAL ILLINOIS

CITY           SKY/WX    TMP DP  RH WIND       PRES   REMARKS
QUINCY         CLOUDY    52  39  61 NW21G28   29.85S
MACOMB*        MOCLDY    49  41  73 W15G21    29.83S
JACKSONVILLE*  CLOUDY    52  39  62 W14G25    29.82S
PITTSFIELD*    PTCLDY    53  39  59 NW13G18   29.85S
$$

ILZ028>032-037-038-041>044-048-051>054-059>061-240500-
CENTRAL ILLINOIS

CITY           SKY/WX    TMP DP  RH WIND       PRES   REMARKS
PONTIAC        DRIZZLE   51  51  98 W10       29.70F
BLOOMINGTON    CLOUDY    50  47  89 W8        29.74F
DECATUR        CLOUDY    50  49  96 W6        29.77F
PEORIA         PTCLDY    51  41  68 W10G24    29.75F
LACON*         CLOUDY    51  42  70 W17G24    29.71F
LINCOLN*       CLOUDY    50  47  87 W3        29.77F
SPRINGFIELD    LGT RAIN  54  44  69 W12G22    29.80S
TAYLORVILLE    CLOUDY    51  45  79 W12G20    29.79F
$$

ILZ033-039-045-046-055>057-062-063-240500-
EAST-CENTRAL ILLINOIS

CITY           SKY/WX    TMP DP  RH WIND       PRES   REMARKS
CHAMPAIGN      LGT RAIN  50  46  87 W8        29.74F
DANVILLE*      LGT RAIN  50  49  94 W14G22    29.69S
RANTOUL*       LGT RAIN  51  49  93 W7        29.73S
MATTOON        PTCLDY    49  49 100 W12       29.76S
PARIS*         DRIZZLE   49  47  92 NW20G28   29.74F
$$

ILZ079-100>102-240500-
SOUTHWEST ILLINOIS

CITY           SKY/WX    TMP DP  RH WIND       PRES   REMARKS
ALTON          CLOUDY    55  43  63 W15G26    29.84F
BELLEVILLE     MOCLDY    52  47  82 W8        29.84R
CAHOKIA*       LGT RAIN  58  42  55 W10       29.86R
SPARTA*        CLOUDY    52  48  87 W6        29.86F
$$

ILZ064>066-069>071-074>076-080>082-084>086-088>090-092>094-240500-
SOUTH-CENTRAL ILLINOIS

CITY           SKY/WX    TMP DP  RH WIND       PRES   REMARKS
CARBONDALE     PTCLDY    52  48  86 W5        29.86S
CAIRO*         PTCLDY    57  47  67 NW3       29.87S
EFFINGHAM*     LGT RAIN  51  51  99 W3        29.79F
MARION         MOCLDY    55  47  76 CALM      29.85F
MT. VERNON     CLOUDY    52  48  86 W3        29.82F
CENTRALIA*     MOCLDY    52  50  93 SW7       29.81F
SALEM*         MOCLDY    53  49  86 SW5       29.81F
METROPOLIS*    CLOUDY    58  47  66 NW6       29.87R
$$

ILZ067-068-072-073-078-083-087-091-240500-
SOUTHEAST ILLINOIS

CITY           SKY/WX    TMP DP  RH WIND       PRES   REMARKS
LAWRENCEVILLE  LGT RAIN  53  32  44 W8        29.79S
FLORA*         CLOUDY    55  49  81 W9        29.80F
FAIRFIELD*     CLOUDY    54  48  80 CALM      29.80F
HARRISBURG*    MOCLDY    55  48  79 N8        29.83F
ROBINSON*      LGT RAIN  52  49  90 W10G18    29.78S
CARMI*         CLOUDY    54  49  82 W10       29.80F
$$

ABBREVIATIONS USED IN REMARKS
   TC - TEMPERATURE IN CELSIUS
  WCI - WIND CHILL INDEX
   HX - HEAT INDEX
  VSB - VISIBILITY
$$





USA.gov is the U.S. government's official web portal to all federal, state and local government web resources and services.